FW3590 Weather Reports


Display with metric or nautical units.
time (UTC)temp
F
wind
direction
speed
MPH
gust
MPH
rain 1hr
in
rain 24hr
in
rain mn
in
humidity
%
barometer
mb
20260508194526 53 129 1.0 4.0 0.00 0.76 0.76 81 1019.7
20260508193026 53 155 2.0 6.0 0.00 0.76 0.76 80 1019.4
20260508191524 53 135 2.0 5.0 0.00 0.76 0.76 79 1019.1
20260508190027 53 152 3.0 6.0 0.00 0.76 0.76 79 1019.1
20260508184530 54 152 4.0 7.0 0.00 0.76 0.76 78 1019.0
20260508183021 54 148 0.0 6.0 0.00 0.76 0.76 78 1018.9
20260508181524 54 148 0.0 4.0 0.00 0.76 0.76 77 1018.8
20260508180022 54 186 1.0 6.0 0.00 0.76 0.76 77 1018.8
20260508174529 54 155 4.0 6.0 0.01 0.76 0.76 76 1018.9
20260508173018 54 172 2.0 5.0 0.01 0.76 0.76 75 1019.0
20260508171518 54 147 3.0 7.0 0.01 0.76 0.76 74 1019.0
20260508170019 54 168 2.0 6.0 0.02 0.76 0.76 75 1018.9
20260508164516 54 176 2.0 7.0 0.02 0.76 0.76 75 1018.7
20260508163024 54 171 5.0 8.0 0.03 0.76 0.76 74 1018.8
20260508161524 55 136 5.0 9.0 0.05 0.76 0.76 74 1019.0
20260508160015 55 158 4.0 9.0 0.06 0.75 0.75 76 1018.9
20260508154512 54 180 6.0 11.0 0.05 0.73 0.73 75 1018.9
20260508153016 55 158 7.0 9.0 0.05 0.72 0.72 76 1019.0
20260508151511 54 157 6.0 9.0 0.31 0.71 0.71 75 1018.8
20260508150015 55 173 7.0 10.0 0.33 0.69 0.69 74 1018.8
20260508144509 55 158 6.0 11.0 0.33 0.70 0.69 75 1018.9
20260508143009 55 183 9.0 13.0 0.32 0.69 0.67 75 1019.0
20260508141509 56 172 6.0 14.0 0.06 0.42 0.40 74 1018.9
20260508140015 56 138 6.0 12.0 0.01 0.37 0.35 67 1019.0
20260508134509 57 119 6.0 11.0 0.01 0.37 0.35 66 1018.9
20260508133005 57 111 8.0 12.0 0.02 0.36 0.35 65 1018.9
20260508131503 57 92 6.0 11.0 0.05 0.36 0.35 63 1018.9
20260508130100 57 89 8.0 12.0 0.07 0.36 0.35 63 1018.8
20260508124559 57 78 9.0 16.0 0.09 0.39 0.35 64 1018.8
20260508123105 57 108 7.0 14.0 0.09 0.37 0.33 65 1018.8
20260508121551 57 154 8.0 13.0 0.06 0.34 0.30 66 1019.1
20260508120046 56 106 4.0 10.0 0.14 0.31 0.28 66 1019.1
20260508114549 55 141 5.0 12.0 0.15 0.43 0.26 68 1019.2
20260508113045 56 94 6.0 12.0 0.13 0.40 0.24 66 1019.0
20260508111543 55 102 5.0 13.0 0.13 0.40 0.24 66 1019.1
20260508110037 55 75 1.0 14.0 0.02 0.30 0.13 67 1019.2
20260508104535 55 92 7.0 10.0 0.00 0.34 0.11 66 1019.3
20260508103037 55 90 6.0 9.0 0.00 0.34 0.11 68 1019.3
20260508101528 54 70 4.0 8.0 0.00 0.34 0.11 69 1019.1
20260508100025 54 133 3.0 11.0 0.00 0.34 0.11 69 1019.2
20260508094519 53 123 8.0 14.0 0.02 0.37 0.11 71 1019.3
20260508093018 53 156 6.0 14.0 0.03 0.37 0.11 72 1019.0
20260508091515 53 105 6.0 13.0 0.04 0.37 0.11 73 1019.4
20260508090015 52 132 7.0 14.0 0.06 0.37 0.11 75 1019.5
20260508084508 52 115 7.0 13.0 0.06 0.39 0.09 75 1019.3
20260508083006 51 133 7.0 12.0 0.06 0.39 0.08 76 1019.3
20260508081506 51 98 7.0 14.0 0.05 0.38 0.07 78 1019.3
20260508080059 50 97 9.0 13.0 0.05 0.35 0.05 79 1019.3
20260508074555 49 88 6.0 11.0 0.03 0.34 0.03 81 1019.3
20260508073054 48 73 2.0 9.0 0.02 0.33 0.02 84 1019.3
20260508071552 47 94 6.0 10.0 0.02 0.33 0.02 87 1019.3
20260508070046 46 74 5.0 9.0 0.00 0.31 0.00 90 1019.1
20260508064540 44 90 5.0 8.0 0.00 0.31 0.00 93 1019.0
20260508063047 43 121 3.0 7.0 0.00 0.31 0.00 95 1018.9
20260508061539 42 101 6.0 8.0 0.00 0.31 0.00 95 1018.8
20260508060036 41 77 5.0 8.0 0.00 0.31 0.00 96 1018.7
20260508054533 40 117 4.0 9.0 0.00 0.34 0.00 96 1018.7
20260508053038 39 95 5.0 7.0 0.00 0.34 0.00 96 1018.7
20260508051534 38 129 1.0 6.0 0.00 0.34 0.00 96 1018.6
20260508050030 38 106 3.0 6.0 0.00 0.34 0.00 96 1018.7
20260508044530 37 116 4.0 6.0 0.00 0.47 0.00 96 1018.6
20260508043029 37 111 4.0 6.0 0.00 0.47 0.00 96 1018.5
20260508041530 36 111 4.0 6.0 0.00 0.47 0.00 95 1018.6
20260508040025 35 123 2.0 5.0 0.00 0.47 0.00 95 1018.5
20260508034523 35 107 0.0 4.0 0.00 0.49 0.00 95 1018.4
20260508033023 36 107 2.0 3.0 0.00 0.49 0.00 95 1018.4
20260508031518 37 107 0.0 0.0 0.00 0.49 0.00 94 1018.4
20260508030016 38 116 1.0 2.0 0.00 0.49 0.00 95 1018.5
20260508024530 38 116 0.0 0.0 0.00 0.49 0.00 95 1018.4
20260508023023 38 116 0.0 0.0 0.00 0.49 0.00 95 1018.5
20260508021513 38 116 0.0 0.0 0.00 0.49 0.00 95 1018.6
20260508020013 38 116 0.0 0.0 0.00 0.49 0.00 95 1018.5
20260508014511 38 116 0.0 0.0 0.00 0.49 0.00 95 1018.4
20260508013009 37 116 0.0 1.0 0.00 0.49 0.00 95 1018.3
20260508011507 38 116 0.0 4.0 0.00 0.49 0.00 95 1018.1
20260508010005 38 116 0.0 4.0 0.00 0.49 0.00 95 1018.0
20260508004504 38 116 0.0 0.0 0.00 0.49 0.00 94 1018.0
20260508003105 39 116 0.0 0.0 0.00 0.49 0.00 94 1017.9
20260508001558 40 116 0.0 0.0 0.00 0.49 0.00 95 1017.9
20260508000059 40 116 0.0 0.0 0.00 0.49 0.00 95 1018.0
20260507234555 40 116 0.0 0.0 0.00 0.49 0.00 94 1018.1
20260507233053 40 84 0.0 0.0 0.00 0.49 0.00 94 1018.1
20260507231555 40 225 0.0 0.0 0.00 0.49 0.00 94 1018.0
20260507230052 40 225 0.0 0.0 0.00 0.49 0.00 94 1018.1
20260507224552 41 225 0.0 0.0 0.00 0.50 0.00 94 1018.0
20260507223045 41 225 0.0 0.0 0.00 0.50 0.00 94 1017.9
20260507221543 41 225 0.0 0.0 0.00 0.50 0.00 94 1017.9
20260507220040 42 225 0.0 0.0 0.00 0.50 0.00 93 1018.0
20260507214546 42 225 0.0 0.0 0.00 0.50 0.50 93 1017.9
20260507213042 43 225 0.0 0.0 0.00 0.50 0.50 93 1017.8
20260507211532 44 225 0.0 0.0 0.00 0.50 0.50 92 1017.7
20260507210030 45 225 0.0 0.0 0.00 0.50 0.50 92 1017.7
20260507204528 46 225 0.0 0.0 0.00 0.51 0.50 92 1017.6
20260507203035 46 225 0.0 0.0 0.00 0.51 0.50 91 1017.6
20260507201528 47 225 0.0 0.0 0.00 0.51 0.50 90 1017.4
20260507200027 48 225 0.0 0.0 0.00 0.51 0.50 89 1017.5